Regional Weather Roundup
Issued by NWS

Home | Current Version | Previous Version | Text Only | Print | Product List | Glossary On
Versions: 1 2 3 4 5 6 7 8 9 10 11 12 13 14 15 16 17 18 19 20 21 22 23 24 25 26 27 28 29 30 31 32 33 34 35 36 37 38 39 40 41 42 43 44 45 46 47 48 49 50
000
ASUS43 KLMK 251710
RWRKY
KENTUCKY REGIONAL WEATHER ROUNDUP
NATIONAL WEATHER SERVICE LOUISVILLE KY
100 PM EDT MON MAY 25 2015

NOTE "FAIR" INDICATES FEW OR NO CLOUDS BELOW 12,000 FEET
WITH NO SIGNIFICANT WEATHER AND/OR OBSTRUCTIONS TO VISIBILITY.

KYZ001>023-026-027-061>063-070>075-251800-
WESTERN AND SOUTH CENTRAL KENTUCKY

CITY           SKY/WX    TMP DP  RH WIND       PRES   REMARKS
PADUCAH        CLOUDY    73  67  81 S12       30.09S
HENDERSON      CLOUDY    73  64  73 S16       30.10S
OWENSBORO      CLOUDY    73  69  87 S17       30.14R
HOPKINSVILLE   LGT RAIN  68  66  94 SE8       30.15S FOG
BOWLING GREEN  LGT RAIN  71  65  81 S13       30.19S
GLASGOW        RAIN      69  65  88 S5        30.20S
$$

KYZ024-025-028>034-038-045-046-053-251800-
NORTH CENTRAL KENTUCKY

CITY           SKY/WX    TMP DP  RH WIND       PRES   REMARKS
LOUISVILLE/SDF LGT RAIN  70  65  84 S15G23    30.16S
LOUISVILLE/LOU LGT RAIN  69  65  86 S9        30.17R
FORT KNOX      LGT RAIN  68  65  92 S16       30.16R
$$

KYZ035>037-039>044-047>052-055>060-089>105-251800-
NORTHEAST KENTUCKY

CITY           SKY/WX    TMP DP  RH WIND       PRES   REMARKS
LEXINGTON      CLOUDY    78  60  53 SW20G30   30.19S
COVINGTON      CLOUDY    70  63  78 SW13G20   30.15S
FRANKFORT      CLOUDY    76  61  59 SW18G26   30.17S
$$

KYZ054-064>069-076>088-106>120-251800-
SOUTHEAST KENTUCKY

CITY           SKY/WX    TMP DP  RH WIND       PRES   REMARKS
JACKSON        SUNNY     79  59  50 MISG      30.23S
LONDON         CLOUDY    79  56  45 S10       30.23R
SOMERSET       CLOUDY    73  59  60 S8        30.23R
MIDDLESBORO    MOSUNNY   78  59  52 S5        30.25F
MONTICELLO     PTSUNNY   77  64  63 S10       30.24R
$$




USA.gov is the U.S. government's official web portal to all federal, state and local government web resources and services.